• In Belarus
  • List of Countries
  • For 7 days
  • Water Temperature
  • Satellite Maps
  • Weather Map
  • Weather Widgets
  • user-avatar
    Login

    Hourly Weather Dolina

    Today, 24 October, Tuesday

    Time Temperature Precipitation Wind Pressure Humidity
    00:00 +7°C° 0.3 mm 3 mps 719 mmHg 94%
    01:00 +7°C° 0.3 mm 3 mps 719 mmHg 94%
    02:00 +7°C° 0 mm 2 mps 720 mmHg 93%
    03:00 +6°C° 0.3 mm 2 mps 720 mmHg 93%
    04:00 +5°C° 0.3 mm 3 mps 721 mmHg 93%
    05:00 +5°C° 0.3 mm 3 mps 721 mmHg 93%
    06:00 +4°C° 0.4 mm 3 mps 721 mmHg 93%
    07:00 +4°C° 0.4 mm 3 mps 722 mmHg 93%
    08:00 +4°C° 0.4 mm 3 mps 722 mmHg 92%
    09:00 +4°C° 0.2 mm 3 mps 723 mmHg 92%
    10:00 +4°C° 0.2 mm 3 mps 724 mmHg 91%
    11:00 +4°C° 0.2 mm 3 mps 724 mmHg 91%
    12:00 +4°C° 0.1 mm 3 mps 725 mmHg 90%
    13:00 +4°C° 0.1 mm 3 mps 725 mmHg 89%
    14:00 +5°C° 0.1 mm 3 mps 725 mmHg 89%
    15:00 +5°C° 0.1 mm 3 mps 726 mmHg 90%
    16:00 +4°C° 0.1 mm 3 mps 726 mmHg 90%
    17:00 +5°C° 0.1 mm 2 mps 726 mmHg 91%
    18:00 +4°C° 0 mm 3 mps 727 mmHg 91%
    19:00 +4°C° 0 mm 3 mps 727 mmHg 91%
    20:00 +4°C° 0 mm 3 mps 728 mmHg 91%
    21:00 +4°C° 0 mm 3 mps 728 mmHg 91%
    22:00 +5°C° 0 mm 2 mps 728 mmHg 91%
    23:00 +4°C° 0 mm 2 mps 729 mmHg 90%

    Tomorrow, 25 October, Wednesday

    Time Temperature Precipitation Wind Pressure Humidity
    00:00 +4°C° 0 mm 2 mps 729 mmHg 91%
    01:00 +3°C° 0 mm 2 mps 729 mmHg 93%
    02:00 +2°C° 0 mm 2 mps 729 mmHg 94%
    03:00 +2°C° 0 mm 2 mps 729 mmHg 94%
    04:00 +2°C° 0 mm 2 mps 729 mmHg 93%
    05:00 +3°C° 0 mm 1 mps 729 mmHg 93%
    06:00 +2°C° 0 mm 2 mps 729 mmHg 92%
    07:00 +2°C° 0 mm 2 mps 730 mmHg 91%
    08:00 +2°C° 0 mm 2 mps 730 mmHg 90%
    09:00 +4°C° 0 mm 2 mps 730 mmHg 83%
    10:00 +6°C° 0 mm 2 mps 730 mmHg 76%
    11:00 +8°C° 0 mm 2 mps 730 mmHg 68%
    12:00 +9°C° 0 mm 2 mps 730 mmHg 66%
    13:00 +10°C° 0 mm 3 mps 729 mmHg 63%
    14:00 +10°C° 0 mm 3 mps 729 mmHg 60%
    15:00 +9°C° 0 mm 2 mps 729 mmHg 65%
    16:00 +8°C° 0 mm 2 mps 729 mmHg 70%
    17:00 +7°C° 0 mm 2 mps 728 mmHg 75%
    18:00 +7°C° 0 mm 2 mps 729 mmHg 78%
    19:00 +6°C° 0 mm 2 mps 729 mmHg 80%
    20:00 +6°C° 0 mm 2 mps 729 mmHg 82%
    21:00 +6°C° 0 mm 2 mps 729 mmHg 81%
    22:00 +6°C° 0 mm 2 mps 729 mmHg 80%
    23:00 +7°C° 0 mm 2 mps 729 mmHg 78%

    Day after tomorrow, 26 October, Thursday

    Time Temperature Precipitation Wind Pressure Humidity
    00:00 +7°C° 0 mm 2 mps 729 mmHg 76%
    01:00 +8°C° 0 mm 2 mps 729 mmHg 74%
    02:00 +8°C° 0 mm 3 mps 729 mmHg 72%
    03:00 +8°C° 0 mm 3 mps 729 mmHg 73%
    04:00 +8°C° 0 mm 3 mps 729 mmHg 74%
    05:00 +7°C° 0 mm 3 mps 728 mmHg 75%
    06:00 +8°C° 0 mm 3 mps 729 mmHg 76%
    07:00 +8°C° 0 mm 3 mps 729 mmHg 76%
    08:00 +8°C° 0 mm 3 mps 729 mmHg 76%
    09:00 +9°C° 0 mm 3 mps 729 mmHg 75%
    10:00 +9°C° 0 mm 3 mps 729 mmHg 73%
    11:00 +10°C° 0 mm 3 mps 729 mmHg 72%
    12:00 +11°C° 0 mm 4 mps 729 mmHg 70%
    13:00 +12°C° 0 mm 4 mps 729 mmHg 68%
    14:00 +13°C° 0 mm 4 mps 728 mmHg 67%
    15:00 +12°C° 0 mm 3 mps 728 mmHg 71%
    16:00 +11°C° 0 mm 3 mps 728 mmHg 76%
    17:00 +10°C° 0 mm 2 mps 728 mmHg 81%
    18:00 +10°C° 0 mm 3 mps 728 mmHg 83%
    19:00 +9°C° 0 mm 3 mps 728 mmHg 84%
    20:00 +9°C° 0 mm 3 mps 727 mmHg 86%
    21:00 +9°C° 0 mm 3 mps 727 mmHg 85%
    22:00 +9°C° 0 mm 3 mps 727 mmHg 84%
    23:00 +9°C° 0 mm 3 mps 727 mmHg 83%

    27 October, Friday

    Time Temperature Precipitation Wind Pressure Humidity
    00:00 +9°C° 0 mm 3 mps 727 mmHg 85%
    01:00 +9°C° 0 mm 3 mps 726 mmHg 86%
    02:00 +9°C° 0 mm 3 mps 726 mmHg 87%
    03:00 +9°C° 0 mm 3 mps 725 mmHg 87%
    04:00 +9°C° 0 mm 3 mps 725 mmHg 87%
    05:00 +9°C° 0 mm 3 mps 724 mmHg 87%
    06:00 +9°C° 1 mm 3 mps 724 mmHg 89%
    07:00 +9°C° 1 mm 3 mps 723 mmHg 90%
    08:00 +9°C° 1 mm 2 mps 723 mmHg 92%
    09:00 +9°C° 0.5 mm 3 mps 722 mmHg 91%
    10:00 +10°C° 0.5 mm 3 mps 722 mmHg 90%
    11:00 +10°C° 0.5 mm 3 mps 721 mmHg 89%
    12:00 +10°C° 1 mm 3 mps 721 mmHg 89%
    13:00 +10°C° 1 mm 3 mps 720 mmHg 90%
    14:00 +9°C° 1 mm 3 mps 719 mmHg 91%
    15:00 +9°C° 0.7 mm 2 mps 719 mmHg 92%
    16:00 +9°C° 0.7 mm 2 mps 718 mmHg 93%
    17:00 +10°C° 0.7 mm 1 mps 717 mmHg 95%
    18:00 +9°C° 2.6 mm 2 mps 717 mmHg 95%
    19:00 +8°C° 2.6 mm 3 mps 717 mmHg 96%
    20:00 +8°C° 2.6 mm 3 mps 716 mmHg 97%
    21:00 +8°C° 2.1 mm 3 mps 716 mmHg 96%
    22:00 +7°C° 2.1 mm 3 mps 716 mmHg 94%
    23:00 +7°C° 2.1 mm 3 mps 716 mmHg 93%

    28 October, Saturday

    Time Temperature Precipitation Wind Pressure Humidity
    00:00 +7°C° 0.6 mm 3 mps 716 mmHg 93%
    01:00 +7°C° 0.6 mm 3 mps 716 mmHg 93%
    02:00 +5°C° 0.6 mm 3 mps 716 mmHg 92%
    03:00 +5°C° 0.1 mm 3 mps 717 mmHg 92%
    04:00 +5°C° 0.1 mm 3 mps 717 mmHg 92%
    05:00 +5°C° 0.1 mm 3 mps 717 mmHg 92%
    06:00 +5°C° 0.2 mm 3 mps 717 mmHg 91%
    07:00 +5°C° 0.2 mm 3 mps 717 mmHg 90%
    08:00 +5°C° 0.2 mm 3 mps 717 mmHg 89%
    09:00 +6°C° 0.1 mm 4 mps 717 mmHg 86%
    10:00 +6°C° 0.1 mm 4 mps 717 mmHg 82%
    11:00 +7°C° 0.1 mm 4 mps 717 mmHg 78%
    12:00 +7°C° 0.5 mm 4 mps 717 mmHg 79%
    13:00 +6°C° 0.5 mm 4 mps 717 mmHg 80%
    14:00 +6°C° 0.5 mm 4 mps 717 mmHg 81%
    15:00 +6°C° 0.3 mm 4 mps 717 mmHg 82%
    16:00 +5°C° 0.3 mm 3 mps 717 mmHg 84%
    17:00 +5°C° 0.3 mm 3 mps 717 mmHg 85%
    18:00 +4°C° 0 mm 3 mps 717 mmHg 86%
    19:00 +4°C° 0 mm 2 mps 717 mmHg 87%
    20:00 +4°C° 0 mm 2 mps 717 mmHg 89%
    21:00 +4°C° 0.1 mm 2 mps 716 mmHg 88%
    22:00 +4°C° 0.1 mm 2 mps 716 mmHg 88%
    23:00 +4°C° 0.1 mm 2 mps 716 mmHg 87%

    29 October, Sunday

    Time Temperature Precipitation Wind Pressure Humidity
    00:00 +4°C° 0.1 mm 2 mps 716 mmHg 88%
    01:00 +4°C° 0.1 mm 2 mps 716 mmHg 89%
    02:00 +4°C° 0.1 mm 2 mps 715 mmHg 90%
    03:00 +3°C° 0 mm 2 mps 715 mmHg 89%
    04:00 +3°C° 0 mm 2 mps 715 mmHg 89%
    05:00 +3°C° 0 mm 2 mps 714 mmHg 88%
    06:00 +3°C° 0 mm 3 mps 714 mmHg 87%
    07:00 +3°C° 0 mm 3 mps 714 mmHg 86%
    08:00 +3°C° 0 mm 4 mps 713 mmHg 85%
    09:00 +4°C° 0.1 mm 4 mps 713 mmHg 81%
    10:00 +5°C° 0.1 mm 5 mps 713 mmHg 76%
    11:00 +5°C° 0.1 mm 6 mps 713 mmHg 71%
    12:00 +5°C° 0.1 mm 6 mps 713 mmHg 70%
    13:00 +5°C° 0.1 mm 6 mps 713 mmHg 69%
    14:00 +5°C° 0.1 mm 6 mps 712 mmHg 69%
    15:00 +5°C° 0.1 mm 5 mps 713 mmHg 72%
    16:00 +5°C° 0.1 mm 4 mps 713 mmHg 75%
    17:00 +5°C° 0.1 mm 4 mps 713 mmHg 78%
    18:00 +4°C° 0.2 mm 3 mps 713 mmHg 80%
    19:00 +4°C° 0.2 mm 3 mps 713 mmHg 82%
    20:00 +5°C° 0.2 mm 2 mps 714 mmHg 84%
    21:00 +5°C° 0.3 mm 2 mps 714 mmHg 85%
    22:00 +4°C° 0.3 mm 2 mps 714 mmHg 87%
    23:00 +4°C° 0.3 mm 2 mps 714 mmHg 89%

    30 October, Monday

    Time Temperature Precipitation Wind Pressure Humidity
    00:00 +4°C° 0.7 mm 2 mps 714 mmHg 89%
    01:00 +4°C° 0.7 mm 2 mps 714 mmHg 89%
    02:00 +4°C° 0.7 mm 2 mps 715 mmHg 89%
    03:00 +3°C° 0.2 mm 2 mps 714 mmHg 89%
    04:00 +3°C° 0.2 mm 2 mps 714 mmHg 89%
    05:00 +3°C° 0.2 mm 1 mps 714 mmHg 89%
    06:00 +2°C° 0.1 mm 2 mps 715 mmHg 89%
    07:00 +3°C° 0.1 mm 2 mps 715 mmHg 88%
    08:00 +2°C° 0.1 mm 3 mps 715 mmHg 87%
    09:00 +2°C° 0.2 mm 3 mps 716 mmHg 84%
    10:00 +3°C° 0.2 mm 3 mps 716 mmHg 80%
    11:00 +4°C° 0.2 mm 4 mps 717 mmHg 77%
    12:00 +4°C° 0.3 mm 4 mps 717 mmHg 77%
    13:00 +4°C° 0.3 mm 4 mps 717 mmHg 78%
    14:00 +4°C° 0.3 mm 4 mps 718 mmHg 79%
    15:00 +3°C° 0.2 mm 4 mps 718 mmHg 81%
    16:00 +3°C° 0.2 mm 3 mps 718 mmHg 84%
    17:00 +3°C° 0.2 mm 3 mps 719 mmHg 86%
    18:00 +2°C° 0.1 mm 3 mps 719 mmHg 88%
    19:00 +3°C° 0.1 mm 2 mps 720 mmHg 90%
    20:00 +3°C° 0.1 mm 2 mps 720 mmHg 92%
    21:00 +3°C° 0.1 mm 2 mps 721 mmHg 92%
    22:00 +2°C° 0.1 mm 3 mps 721 mmHg 93%
    23:00 +2°C° 0.1 mm 3 mps 722 mmHg 94%
    Show more